Torna al catalogo

ONEWEB-0136

AttivoComunicazioniPO
NORAD 47282·PAYLOAD·🇬🇧 United Kingdom

Lanciato Dec 18, 2020 da Vostochny Cosmodrome

Loading…

Prossimi Passaggi (prossime 24 ore)

TLE

AggiornatoSource: CelesTrak SupGP

Epoca: Sep 14, 2026, 13:33 UTC

1 47282C 20100AA  26257.56472222  .00001973  00000+0  54915-2 0  2570
2 47282  87.8983 332.9088 0001731  93.2040  16.4647 13.12437331    18

Traccia ONEWEB-0136 in tempo reale con AllMySat

Download on the App Store